TimePDT,TemperatureF,Dew PointF,Humidity,Sea Level PressureIn,VisibilityMPH,Wind Direction,Wind SpeedMPH,Gust SpeedMPH,PrecipitationIn,Events,Conditions,WindDirDegrees,DateUTC
12:53 AM,35.1,32.0,89,30.04,7.0,Calm,Calm,-,N/A,,Scattered Clouds,0,2013-10-09 07:53:00
1:53 AM,35.1,33.1,92,30.06,8.0,Calm,Calm,-,N/A,,Clear,0,2013-10-09 08:53:00
2:53 AM,33.1,30.9,92,30.05,8.0,Calm,Calm,-,N/A,,Clear,0,2013-10-09 09:53:00
3:53 AM,30.9,30.0,96,30.06,8.0,Calm,Calm,-,N/A,,Clear,0,2013-10-09 10:53:00
4:53 AM,30.0,28.9,96,30.08,7.0,Calm,Calm,-,N/A,,Clear,0,2013-10-09 11:53:00
5:53 AM,30.0,28.0,92,30.09,7.0,Calm,Calm,-,N/A,,Clear,0,2013-10-09 12:53:00
6:53 AM,30.9,28.9,92,30.09,2.0,NW,4.6,-,N/A,,Partly Cloudy,320,2013-10-09 13:53:00
6:56 AM,30.2,28.4,93,30.03,1.0,Calm,Calm,-,N/A,,Mist,0,2013-10-09 13:56:00
7:03 AM,30.2,28.4,93,30.03,0.5,NW,3.5,-,N/A,Fog,Light Freezing Fog,320,2013-10-09 14:03:00
7:53 AM,30.0,28.9,96,30.10,0.2,Calm,Calm,-,N/A,Fog,Light Freezing Fog,0,2013-10-09 14:53:00
8:20 AM,30.2,30.2,100,30.04,1.5,Calm,Calm,-,N/A,,Overcast,0,2013-10-09 15:20:00
8:29 AM,30.2,30.2,100,30.05,0.2,Calm,Calm,-,N/A,Fog,Light Freezing Fog,0,2013-10-09 15:29:00
8:53 AM,30.9,30.0,96,30.10,0.2,Calm,Calm,-,N/A,Fog,Light Freezing Fog,0,2013-10-09 15:53:00
9:50 AM,37.4,35.6,93,30.05,1.8,Calm,Calm,-,N/A,,Overcast,0,2013-10-09 16:50:00
9:53 AM,37.0,36.0,96,30.10,1.8,Calm,Calm,-,N/A,,Overcast,0,2013-10-09 16:53:00
9:59 AM,37.4,37.4,100,30.05,3.0,Calm,Calm,-,N/A,,Overcast,0,2013-10-09 16:59:00
10:24 AM,41.0,37.4,87,30.04,9.0,Calm,Calm,-,N/A,,Scattered Clouds,0,2013-10-09 17:24:00
10:53 AM,45.0,39.0,80,30.08,10.0,Variable,3.5,-,N/A,,Clear,0,2013-10-09 17:53:00
11:41 AM,48.2,41.0,76,30.03,10.0,Variable,4.6,-,N/A,,Mostly Cloudy,0,2013-10-09 18:41:00
11:53 AM,48.9,43.0,80,30.06,9.0,WNW,6.9,-,N/A,,Mostly Cloudy,290,2013-10-09 18:53:00
12:53 PM,48.9,41.0,74,30.05,10.0,WNW,6.9,-,N/A,,Scattered Clouds,290,2013-10-09 19:53:00
1:53 PM,50.0,39.0,66,30.03,10.0,WSW,4.6,-,N/A,,Clear,250,2013-10-09 20:53:00
2:53 PM,51.1,39.9,66,30.02,10.0,Variable,4.6,-,N/A,,Scattered Clouds,0,2013-10-09 21:53:00
3:53 PM,50.0,39.0,66,30.02,10.0,West,4.6,-,N/A,,Clear,270,2013-10-09 22:53:00
4:53 PM,48.9,37.9,66,30.01,10.0,West,8.1,-,N/A,,Clear,270,2013-10-09 23:53:00
5:53 PM,46.0,39.0,76,30.01,10.0,West,4.6,-,N/A,,Clear,270,2013-10-10 00:53:00
6:53 PM,42.1,37.9,85,30.01,10.0,West,3.5,-,N/A,,Clear,260,2013-10-10 01:53:00
7:53 PM,39.0,35.1,86,30.01,10.0,Calm,Calm,-,N/A,,Clear,0,2013-10-10 02:53:00
8:53 PM,36.0,33.1,89,30.02,10.0,Calm,Calm,-,N/A,,Clear,0,2013-10-10 03:53:00
9:53 PM,36.0,33.1,89,30.01,8.0,Calm,Calm,-,N/A,,Clear,0,2013-10-10 04:53:00
10:53 PM,32.0,28.9,88,29.99,5.0,Calm,Calm,-,N/A,,Scattered Clouds,0,2013-10-10 05:53:00
10:58 PM,33.8,30.2,87,29.94,1.8,Calm,Calm,-,N/A,,Scattered Clouds,0,2013-10-10 05:58:00
11:09 PM,33.8,32.0,93,29.94,3.0,Calm,Calm,-,N/A,,Scattered Clouds,0,2013-10-10 06:09:00
11:28 PM,32.0,30.2,93,29.93,4.0,Calm,Calm,-,N/A,,Mostly Cloudy,0,2013-10-10 06:28:00
11:53 PM,32.0,30.9,96,29.97,1.8,Calm,Calm,-,N/A,,Overcast,0,2013-10-10 06:53:00